SL-16 DEB, 22333

Orbit data source: Space-Track

SL-16 DEB, 22333 is space debris in LEO originally from a launch on Fri, 25 Dec 1992 UTC launched from the Tyuratam Missile And Space Complex (TTMTR). Debris objects in space refer to the collection of defunct objects orbiting the Earth. Examples of debris include non-operational satellites, rocket bodies, and fragments generated from explosions, collisions, or faulty payload assembly.

Loading next visibility...
Identifier
22333, 1992-093W
Orbit
LEO
Country
Flag of CISCIS
Related business
Manufacturer
Unknown
Mission
Spacecraft
Bus & Motor
Unknown
Mass
Unknown
Launch date (UTC)
1992-12-25 (33 years ago)
Launch vehicle
Unknown
Launch site
Tyuratam Missile And Space Complex (TTMTR)
Object type
Payload
Rocket body
Debris
Shape & HBR
Unknown shape, 0.2 m
Radar Cross Section
Medium (>0.1 m² and <1 m²)

Expand to show TLE details & history
Last TLE update: 16 hours ago

TLE from 16 hours ago
0 SL-16 DEB
1 22333U 92093W   26132.75090088  .00000187  00000-0  62695-4 0  9995
2 22333  71.0013 155.3957 0125517 268.5805  90.0953 14.46095404734947
Epoch: 2026-05-12T18:01Z
TLE epoch observation values (Epoch: 2026-05-12T18:01:17.836Z)
Latitude
0.00001°
Longitude
14.5506°
Altitude
742.135 km
Speed
7.483 km/s
True Right ascension
10h 21m 34s
True Declination
0° 00' 00"
Sunlit
Object was in daylight at epoch
Visualization orbit readout
Latitude
Unknown
Longitude
Unknown
Altitude
Unknown
Speed
Unknown
Apparent Right ascension
Unknown
Apparent Declination
Unknown
Sunlit
N/A
Visualization observer readout
Local Sidereal Time
18:40:17
Azimuth
Unknown
Elevation
Unknown
Doppler factor
Unknown
Orbital elements
Apogee altitude
825.622 km
Perigee altitude
647.025 km
Semi-major axis
7,114.461 km
Eccentricity
0.01255
Inclination
71.0013°
RAAN
155.3957°
Arg. of periapsis
268.5805°
True anomaly
91.53343°
Mean anomaly
90.0953°
Eccentric anomaly
90.81439°
Mean motion
3.61685 °/min
Orbital period
99.53 mins
BSTAR
0.000062695
Loading maneuver chart data...
Computing Atmospheric mass density...
Loading historical data...
Loading historical data...
Loading historical data...
Loading historical data...
Loading historical data...
Loading historical data...
Loading historical data...

Documentation

Showing up to 5 results
|